Overview Statistics Trail Chart Weather Telemetry Raw packets
 

This is the latest recevied weather packets stored in our database for station/object KF7U. If no packets are shown the sender has not sent any weather packets the latest 10 day(s).

<< 70 71 72 73 74 75 76 >>
Time Temp. Humidity Pressure Rain* Wind** Luminosity Snow
1788167001 23.33° C 84% 1012.5 hPa 14.22 mm - - -
1788166688 23.33° C 82% 1012.5 hPa 14.22 mm - - -
1788166388 23.33° C 81% 1012.5 hPa 14.22 mm - - -
1788166087 23.33° C 78% 1012.5 hPa 14.22 mm - - -
1788165789 23.33° C 78% 1012.5 hPa 14.22 mm - - -
1788165487 22.78° C 79% 1012.5 hPa 14.22 mm - - -
1788165188 22.78° C 81% 1013.2 hPa 13.46 mm - - -
1788164888 22.78° C 81% 1013.2 hPa 13.21 mm - - -
1788164588 23.33° C 76% 1013.5 hPa 11.43 mm - - -
1788164291 25° C 67% 1013.5 hPa 9.91 mm - - -
1788163988 27.22° C 63% 1013.2 hPa 1.02 mm - - -
1788163687 28.33° C 55% 1012.5 hPa 0 mm - - -
1788163387 28.33° C 55% 1012.5 hPa 0 mm - - -
1788163088 28.33° C 54% 1012.5 hPa 0 mm - - -
1788162787 28.33° C 54% 1012.5 hPa 0 mm - - -
1788162488 28.33° C 54% 1012.5 hPa 0 mm - - -
1788162188 28.33° C 54% 1012.5 hPa 0 mm - - -
1788161887 28.33° C 54% 1012.5 hPa 0 mm - - -
1788161588 28.33° C 55% 1012.9 hPa 0 mm - - -
1788161294 28.89° C 54% 1012.9 hPa 0 mm - - -
1788160988 28.89° C 55% 1012.9 hPa 0 mm - - -
1788160687 28.89° C 55% 1012.9 hPa 0 mm - - -
1788160388 28.89° C 56% 1013.2 hPa 0 mm - - -
1788160088 28.89° C 56% 1013.2 hPa 0 mm - - -
1788159788 28.33° C 57% 1013.2 hPa 0 mm - - -

* Rain latest hour (hover to see other rain measurements)
** Current wind speed in m/s (hover to see current wind gust speed)